TimeMDT,TemperatureF,Dew PointF,Humidity,Sea Level PressureIn,VisibilityMPH,Wind Direction,Wind SpeedMPH,Gust SpeedMPH,PrecipitationIn,Events,Conditions,WindDirDegrees,DateUTC
12:15 AM,59.0,42.8,55,29.82,10.0,Calm,Calm,-,N/A,,Clear,0,2013-06-24 06:15:00
12:35 AM,55.4,41.0,58,29.81,10.0,SSW,3.5,-,N/A,,Clear,200,2013-06-24 06:35:00
12:55 AM,55.4,39.2,54,29.81,10.0,Calm,Calm,-,N/A,,Clear,0,2013-06-24 06:55:00
1:15 AM,53.6,37.4,54,29.81,10.0,South,4.6,-,N/A,,Clear,190,2013-06-24 07:15:00
1:55 AM,55.4,37.4,51,29.80,10.0,SSW,8.1,-,N/A,,Clear,210,2013-06-24 07:55:00
2:15 AM,55.4,35.6,47,29.79,10.0,SW,8.1,-,N/A,,Clear,220,2013-06-24 08:15:00
2:35 AM,55.4,35.6,47,29.78,10.0,SW,4.6,-,N/A,,Clear,220,2013-06-24 08:35:00
2:55 AM,57.2,35.6,44,29.78,10.0,SW,8.1,-,N/A,,Clear,220,2013-06-24 08:55:00
3:15 AM,55.4,35.6,47,29.78,10.0,SSW,3.5,-,N/A,,Clear,210,2013-06-24 09:15:00
3:35 AM,55.4,33.8,44,29.77,10.0,SSW,6.9,-,N/A,,Clear,200,2013-06-24 09:35:00
3:55 AM,51.8,35.6,54,29.77,10.0,Calm,Calm,-,N/A,,Clear,0,2013-06-24 09:55:00
4:15 AM,53.6,35.6,51,29.77,10.0,SW,3.5,-,N/A,,Clear,220,2013-06-24 10:15:00
4:36 AM,51.8,37.4,58,29.77,10.0,Calm,Calm,-,N/A,,Clear,0,2013-06-24 10:36:00
4:55 AM,51.8,37.4,58,29.77,10.0,Calm,Calm,-,N/A,,Clear,0,2013-06-24 10:55:00
5:15 AM,51.8,37.4,58,29.78,10.0,Calm,Calm,-,N/A,,Clear,0,2013-06-24 11:15:00
5:35 AM,51.8,35.6,54,29.77,10.0,South,5.8,-,N/A,,Clear,180,2013-06-24 11:35:00
6:15 AM,53.6,35.6,51,29.78,10.0,South,3.5,-,N/A,,Clear,190,2013-06-24 12:15:00
6:35 AM,57.2,37.4,48,29.78,10.0,SSW,4.6,-,N/A,,Clear,200,2013-06-24 12:35:00
6:55 AM,60.8,35.6,39,29.77,10.0,SW,3.5,-,N/A,,Clear,230,2013-06-24 12:55:00
7:15 AM,60.8,35.6,39,29.77,10.0,West,4.6,-,N/A,,Clear,280,2013-06-24 13:15:00
7:35 AM,57.2,44.6,63,29.78,10.0,Calm,Calm,-,N/A,,Clear,0,2013-06-24 13:35:00
7:55 AM,57.2,44.6,63,29.78,10.0,Calm,Calm,-,N/A,,Clear,0,2013-06-24 13:55:00
8:15 AM,60.8,41.0,48,29.78,10.0,SW,4.6,-,N/A,,Clear,220,2013-06-24 14:15:00
8:35 AM,62.6,37.4,39,29.78,10.0,SW,5.8,-,N/A,,Clear,230,2013-06-24 14:35:00
8:55 AM,60.8,44.6,55,29.77,10.0,Calm,Calm,-,N/A,,Clear,0,2013-06-24 14:55:00
9:15 AM,62.6,42.8,48,29.78,10.0,Calm,Calm,-,N/A,,Clear,0,2013-06-24 15:15:00
9:35 AM,64.4,41.0,42,29.78,10.0,SW,4.6,-,N/A,,Clear,230,2013-06-24 15:35:00
9:55 AM,66.2,39.2,37,29.77,10.0,Calm,Calm,-,N/A,,Clear,0,2013-06-24 15:55:00
10:15 AM,68.0,41.0,37,29.76,10.0,Calm,Calm,-,N/A,,Clear,0,2013-06-24 16:15:00
10:35 AM,69.8,44.6,40,29.76,10.0,NE,4.6,-,N/A,,Clear,50,2013-06-24 16:35:00
11:15 AM,73.4,37.4,27,29.75,10.0,Calm,Calm,-,N/A,,Clear,0,2013-06-24 17:15:00
11:35 AM,75.2,39.2,27,29.74,10.0,East,3.5,-,N/A,,Clear,90,2013-06-24 17:35:00
11:55 AM,77.0,39.2,26,29.73,10.0,NE,4.6,-,N/A,,Clear,40,2013-06-24 17:55:00
12:15 PM,75.2,46.4,36,29.72,10.0,NE,10.4,-,N/A,,Mostly Cloudy,50,2013-06-24 18:15:00
12:35 PM,78.8,42.8,28,29.70,10.0,East,9.2,-,N/A,,Partly Cloudy,80,2013-06-24 18:35:00
12:55 PM,78.8,35.6,21,29.70,10.0,East,8.1,31.1,N/A,Thunderstorm,Scattered Clouds,100,2013-06-24 18:55:00
1:15 PM,75.2,39.2,27,29.68,10.0,East,18.4,-,N/A,Thunderstorm,Thunderstorm,80,2013-06-24 19:15:00
1:35 PM,78.8,42.8,28,29.69,10.0,East,15.0,20.7,N/A,,Partly Cloudy,100,2013-06-24 19:35:00
1:55 PM,82.4,39.2,21,29.70,10.0,ESE,12.7,-,N/A,Thunderstorm,Clear,110,2013-06-24 19:55:00
2:35 PM,77.0,42.8,29,29.72,10.0,West,11.5,23.0,N/A,,Clear,280,2013-06-24 20:35:00
2:55 PM,78.8,42.8,28,29.74,10.0,WSW,19.6,29.9,N/A,,Partly Cloudy,240,2013-06-24 20:55:00
3:15 PM,77.0,39.2,26,29.73,10.0,WSW,19.6,33.4,N/A,,Mostly Cloudy,250,2013-06-24 21:15:00
3:35 PM,75.2,37.4,25,29.72,10.0,West,12.7,26.5,N/A,,Mostly Cloudy,280,2013-06-24 21:35:00
3:55 PM,75.2,39.2,27,29.72,10.0,SW,15.0,24.2,N/A,,Mostly Cloudy,220,2013-06-24 21:55:00
4:15 PM,78.8,37.4,23,29.70,10.0,East,8.1,-,N/A,,Partly Cloudy,80,2013-06-24 22:15:00
4:35 PM,78.8,35.6,21,29.69,10.0,South,4.6,-,N/A,,Clear,180,2013-06-24 22:35:00
4:55 PM,80.6,35.6,20,29.68,10.0,NW,3.5,-,N/A,,Clear,310,2013-06-24 22:55:00
5:15 PM,78.8,39.2,24,29.67,10.0,NNW,4.6,-,N/A,,Clear,330,2013-06-24 23:15:00
5:35 PM,78.8,44.6,30,29.67,10.0,Calm,Calm,-,N/A,,Clear,0,2013-06-24 23:35:00
5:55 PM,77.0,42.8,29,29.67,10.0,NW,9.2,-,N/A,,Clear,320,2013-06-24 23:55:00
6:15 PM,75.2,44.6,34,29.67,10.0,NNW,8.1,-,N/A,,Clear,340,2013-06-25 00:15:00
6:35 PM,75.2,44.6,34,29.67,10.0,NNW,9.2,-,N/A,,Clear,330,2013-06-25 00:35:00
6:55 PM,75.2,42.8,31,29.67,10.0,NNW,6.9,-,N/A,,Clear,330,2013-06-25 00:55:00
7:35 PM,73.4,44.6,36,29.68,10.0,NNE,5.8,-,N/A,,Clear,30,2013-06-25 01:35:00
7:55 PM,73.4,44.6,36,29.68,10.0,NNE,5.8,-,N/A,,Clear,30,2013-06-25 01:55:00
8:15 PM,73.4,42.8,33,29.69,10.0,Calm,Calm,-,N/A,,Clear,0,2013-06-25 02:15:00
8:35 PM,73.4,42.8,33,29.69,10.0,West,4.6,-,N/A,,Clear,260,2013-06-25 02:35:00
8:55 PM,73.4,39.2,29,29.70,10.0,SW,10.4,17.3,N/A,,Partly Cloudy,220,2013-06-25 02:55:00
9:35 PM,73.4,39.2,29,29.72,10.0,West,4.6,-,N/A,,Clear,260,2013-06-25 03:35:00
9:55 PM,71.6,39.2,31,29.73,10.0,SW,9.2,-,N/A,,Partly Cloudy,230,2013-06-25 03:55:00
10:35 PM,69.8,42.8,38,29.74,10.0,WNW,9.2,19.6,N/A,,Mostly Cloudy,290,2013-06-25 04:35:00
10:55 PM,69.8,42.8,38,29.74,10.0,NW,16.1,25.3,N/A,,Mostly Cloudy,310,2013-06-25 04:55:00
11:15 PM,69.8,42.8,38,29.74,10.0,WNW,12.7,20.7,N/A,,Mostly Cloudy,290,2013-06-25 05:15:00
11:35 PM,69.8,41.0,35,29.75,10.0,West,9.2,-,N/A,,Partly Cloudy,270,2013-06-25 05:35:00
11:55 PM,69.8,41.0,35,29.74,10.0,West,6.9,21.9,N/A,,Scattered Clouds,270,2013-06-25 05:55:00